This is the latest recevied weather packets stored in our database for station/object WA6OOO. If no packets are shown the sender has not sent any weather packets the latest 10 day(s).
| Time | Temp. | Humidity | Pressure | Rain* | Wind** | Luminosity | Snow |
|---|---|---|---|---|---|---|---|
| 1787971921 | 22.78° C | 82% | 1013.6 hPa | 0 mm | - | 0 W/m² | - |
| 1787971617 | 22.78° C | 82% | 1013.4 hPa | 0 mm | - | 0 W/m² | - |
| 1787971313 | 22.78° C | 82% | 1013.4 hPa | 0 mm | - | 0 W/m² | - |
| 1787971008 | 22.78° C | 82% | 1013.4 hPa | 0 mm | - | 1 W/m² | - |
| 1787970707 | 22.78° C | 82% | 1013.5 hPa | 0 mm | - | 2 W/m² | - |
| 1787970407 | 22.78° C | 82% | 1013.7 hPa | 0 mm | - | 3 W/m² | - |
| 1787970105 | 22.78° C | 82% | 1013.6 hPa | 0 mm | - | 5 W/m² | - |
| 1787969805 | 22.78° C | 82% | 1013.7 hPa | 0 mm | - | 7 W/m² | - |
| 1787969504 | 22.78° C | 82% | 1013.7 hPa | 0 mm | - | 9 W/m² | - |
| 1787969199 | 23.33° C | 81% | 1013.9 hPa | 0 mm | - | 14 W/m² | - |
| 1787968894 | 23.33° C | 81% | 1013.7 hPa | 0 mm | - | 19 W/m² | - |
| 1787968593 | 23.33° C | 80% | 1013.6 hPa | 0 mm | - | 24 W/m² | - |
| 1787968288 | 23.89° C | 79% | 1013.4 hPa | 0 mm | - | 27 W/m² | - |
| 1787967984 | 23.89° C | 79% | 1013.5 hPa | 0 mm | - | 31 W/m² | - |
| 1787967681 | 23.89° C | 79% | 1013.6 hPa | 0 mm | - | 42 W/m² | - |
| 1787967380 | 24.44° C | 78% | 1013.9 hPa | 0 mm | - | 50 W/m² | - |
| 1787967075 | 24.44° C | 77% | 1013.7 hPa | 0 mm | - | 57 W/m² | - |
| 1787966773 | 24.44° C | 78% | 1013.8 hPa | 0 mm | - | 64 W/m² | - |
| 1787966472 | 24.44° C | 77% | 1013.7 hPa | 0 mm | - | 71 W/m² | - |
| 1787966168 | 23.89° C | 78% | 1013.8 hPa | 0 mm | - | 79 W/m² | - |
| 1787965866 | 25° C | 76% | 1013.9 hPa | 0 mm | - | 91 W/m² | - |
| 1787965561 | 25° C | 75% | 1013.7 hPa | 0 mm | - | 101 W/m² | - |
| 1787965257 | 25° C | 75% | 1013.7 hPa | 0 mm | - | 111 W/m² | - |
| 1787964951 | 25° C | 75% | 1013.6 hPa | 0 mm | - | 124 W/m² | - |
| 1787964646 | 25° C | 75% | 1013.6 hPa | 0 mm | - | 134 W/m² | - |
* Rain latest hour (hover to see other rain measurements)
** Current wind speed in m/s (hover to see current wind gust speed)